Cloud_Cover
100 100 100 100 100 100 100 100 100 100 100 6 5 10 5 5 5 5 5 5 5 0 0 2 5 5 5 5 0 0 0 0 0 0 0 0 0 0 0 0 0 0 0 0
100 100 100 100 100 100 100 100 100 100 100 5 5 61 19 5 33 16 5 4 0 0 0 0 5 5 5 5 5 5 5 5 0 0 0 0 0 0 0 0 0 0 0 3
100 100 100 100 100 100 100 100 100 100 100 42 5 16 5 5 5 8 47 5 5 4 2 3 3 5 5 4 0 5 5 5 0 0 0 0 0 0 0 0 0 0 0 0
88 100 100 100 100 100 100 100 100 100 97 78 62 22 20 24 5 5 8 5 5 5 5 5 5 5 5 5 5 5 0 0 0 0 0 0 0 0 0 0 1 3 5 5
100 100 100 100 100 100 100 100 100 100 98 100 100 22 100 96 41 5 5 5 5 5 5 5 5 35 57 32 5 1 0 0 0 0 0 0 0 0 2 5 5 5 5 5
100 100 100 100 100 100 100 100 100 100 100 91 74 6 100 86 11 5 5 5 6 5 5 5 5 5 5 5 5 4 5 5 0 0 0 0 0 5 5 5 5 48 94 100
100 100 100 100 100 100 100 100 100 100 100 35 73 70 100 36 50 5 5 5 5 42 5 5 5 5 5 6 79 16 2 0 0 0 0 0 4 5 5 5 5 76 82 100
100 100 100 100 100 100 100 100 100 100 97 100 91 11 36 20 6 5 5 5 5 5 5 5 5 5 16 46 7 4 0 0 0 0 0 2 5 5 5 5 12 100 100 100
100 100 100 100 100 100 100 100 100 100 100 100 78 97 100 94 5 5 5 5 5 5 44 5 11 35 5 5 5 0 0 0 0 0 5 5 5 5 5 5 5 29 100 100
91 100 100 100 100 100 100 100 100 100 100 89 63 98 100 98 41 6 5 5 5 5 5 5 5 6 5 5 1 0 0 0 0 5 5 5 5 5 5 5 5 28 98 100
100 100 94 100 100 100 100 100 100 100 87 88 47 100 100 99 13 5 5 8 6 5 5 5 5 5 5 1 0 0 0 0 4 5 5 5 5 5 5 5 51 100 100 100
100 95 90 100 100 100 100 100 100 100 100 100 100 100 100 100 86 6 5 5 5 44 5 5 5 5 5 1 0 0 0 3 5 5 5 5 5 5 5 5 64 100 100 100
100 100 98 92 90 60 70 94 100 100 100 100 93 98 100 100 100 24 5 5 25 79 5 5 5 4 0 0 0 0 5 5 5 5 5 5 5 5 5 6 29 100 100 100
100 98 69 77 72 64 50 100 100 100 46 5 29 100 100 100 100 86 5 5 7 5 11 5 5 5 4 5 0 5 5 5 5 5 5 5 5 5 5 5 92 100 100 100
100 100 100 100 100 85 85 100 100 8 16 28 93 98 100 100 100 15 27 7 92 5 47 8 5 5 5 5 6 15 5 5 5 5 8 5 5 5 5 5 97 89 100 100
100 100 100 100 100 96 42 89 30 33 5 20 60 95 100 100 28 13 100 7 42 97 93 23 11 88 41 20 5 5 5 5 5 14 49 5 7 5 5 5 100 100 97 100
100 100 100 100 100 100 56 100 95 29 47 60 17 100 100 100 33 44 100 70 6 100 30 81 100 100 50 4 5 5 5 5 50 62 14 55 55 5 5 5 100 100 92 100
100 100 100 100 100 90 85 98 100 59 86 78 99 100 100 100 100 41 100 18 5 44 5 67 95 75 5 5 5 5 48 59 63 63 52 38 5 5 5 5 7 71 100 100
100 100 100 100 100 92 100 100 100 100 88 100 100 100 100 100 100 100 100 100 100 99 49 70 90 59 36 5 5 5 69 66 74 48 10 6 5 5 5 5 5 5 5 5
100 100 100 100 100 95 100 100 100 100 100 24 71 100 84 100 100 100 100 100 100 100 83 98 86 69 52 22 5 5 5 34 62 5 5 5 5 5 5 5 7 5 5 5
100 100 100 100 99 17 100 100 100 100 99 100 84 100 100 100 100 100 100 100 100 100 48 42 34 73 39 18 5 10 8 5 5 5 39 5 5 5 6 5 5 5 5 5
100 100 100 100 100 70 100 100 100 100 100 100 100 100 100 100 100 100 100 100 100 100 72 94 82 56 77 40 5 5 34 6 5 5 5 5 5 5 5 5 5 5 5 5
97 100 100 100 100 100 100 100 27 98 49 100 100 100 100 100 100 100 100 100 100 100 100 87 63 100 90 63 5 5 68 46 12 5 5 5 5 5 5 5 5 5 5 5
44 94 100 100 100 100 100 100 22 86 100 100 100 100 100 100 100 100 100 100 100 100 100 100 86 100 100 77 8 6 99 83 100 95 6 5 5 5 5 73 11 5 6 38
100 100 94 91 100 100 100 100 100 100 100 100 100 100 100 100 100 100 100 100 100 100 100 100 100 100 100 55 15 5 100 72 100 100 94 17 5 5 5 7 96 98 30 15
100 89 100 100 100 100 100 99 100 100 100 100 100 100 100 100 100 100 100 100 100 100 100 100 100 94 74 19 6 99 100 100 100 100 100 100 93 67 52 88 71 99 100 100